Weather History for Tinker AFB, OK

Change the Weather History Date:

Wednesday, September 18, 2013

  Actual Average Record
Temperature  
Mean Temperature 82 °F -  
Max Temperature 93 °F 79 °F 96 °F (1997)
Min Temperature 71 °F 60 °F 51 °F (2006)
Cooling Degree Days 17    
Growing Degree Days 32 (Base 50)    
Moisture  
Dew Point 67 °F    
Average Humidity 65    
Maximum Humidity 92    
Minimum Humidity 34    
Precipitation  
Precipitation 0.00 in - - ()
Sea Level Pressure  
Sea Level Pressure 29.94 in    
Wind  
Wind Speed 10 mph (South)    
Max Wind Speed 21 mph    
Max Gust Speed 28 mph    
Visibility 10 miles    
Events      
Averages and records for this station are not official NWS values.
T = Trace of Precipitation, MM = Missing Value Source: NWS Daily Summary

Daily Weather History Graph

Daily Weather History Graph

Search for Another Location

Airport:

Trip Planner

Search our weather history database for the weather conditions in past years. The results will help you decide how hot, cold, wet, or windy it might be!

Date:

Astronomy

Sep. 18, 2013 Rise Set
Actual Time 7:14 AM CDT 7:31 PM CDT
Civil Twilight 6:49 AM CDT 7:57 PM CDT
Nautical Twilight 6:19 AM CDT 8:26 PM CDT
Astronomical Twilight 5:49 AM CDT 8:57 PM CDT
Moon 6:56 PM CDT (9/18) 6:19 AM CDT (9/18)
Length of Visible Light 13h 07m
Length of Day
12h 17m
Waxing Gibbous, 99% of the Moon is Illuminated
Sep 18
Waxing Gibbous
Sep 19
Full
Sep 26
Last Quarter
Oct 4
New
Oct 11
First Quarter

Hourly Weather History & Observations

Time (CDT) Temp. Heat Index Dew Point Humidity Pressure Visibility Wind Dir Wind Speed Gust Speed Precip Events Conditions
12:58 AM 71.1 °F - 68.7 °F 92% 30.00 in 10.0 mi SE 6.9 mph - N/A   Mostly Cloudy
1:58 AM 71.6 °F - 68.5 °F 90% 29.98 in 10.0 mi SE 10.4 mph - N/A   Mostly Cloudy
2:58 AM 73.4 °F - 68.4 °F 84% 29.96 in 10.0 mi SSE 9.2 mph - N/A   Scattered Clouds
3:58 AM 73.4 °F - 68.2 °F 84% 29.95 in 10.0 mi SSE 8.1 mph - N/A   Mostly Cloudy
4:58 AM 73.8 °F - 68.5 °F 84% 29.94 in 10.0 mi SSE 8.1 mph - N/A   Mostly Cloudy
5:58 AM 73.8 °F - 68.5 °F 84% 29.94 in 10.0 mi SSE 9.2 mph - N/A   Mostly Cloudy
6:58 AM 72.3 °F - 68.5 °F 88% 29.96 in 10.0 mi SE 6.9 mph - N/A   Mostly Cloudy
7:58 AM 73.4 °F - 69.1 °F 86% 29.98 in 10.0 mi SSE 8.1 mph - N/A   Scattered Clouds
8:58 AM 74.8 °F - 68.9 °F 82% 29.99 in 10.0 mi SSE 10.4 mph - N/A   Partly Cloudy
9:58 AM 78.6 °F - 69.1 °F 72% 30.00 in 10.0 mi South 10.4 mph - N/A   Partly Cloudy
10:58 AM 80.2 °F 83.2 °F 69.3 °F 69% 30.00 in 10.0 mi South 11.5 mph - N/A   Partly Cloudy
11:58 AM 84.0 °F 88.1 °F 69.6 °F 62% 29.98 in 10.0 mi South 13.8 mph - N/A   Partly Cloudy
12:58 PM 89.4 °F 92.7 °F 67.6 °F 48% 29.96 in 10.0 mi SSW 17.3 mph 26.5 mph N/A   Partly Cloudy
1:58 PM 91.0 °F 93.0 °F 64.8 °F 42% 29.94 in 10.0 mi SSW 19.6 mph 26.5 mph N/A   Clear
2:58 PM 91.8 °F 93.4 °F 64.6 °F 40% 29.91 in 10.0 mi SSW 17.3 mph 27.6 mph N/A   Clear
3:58 PM 92.1 °F 93.6 °F 64.0 °F 39% 29.89 in 10.0 mi South 17.3 mph 24.2 mph N/A   Partly Cloudy
4:58 PM 93.2 °F 93.3 °F 60.6 °F 34% 29.88 in 10.0 mi SSW 20.7 mph 24.2 mph N/A   Partly Cloudy
5:58 PM 91.8 °F 91.9 °F 61.3 °F 36% 29.87 in 10.0 mi South 16.1 mph - N/A   Clear
6:58 PM 88.3 °F 89.5 °F 64.0 °F 44% 29.87 in 10.0 mi South 9.2 mph - N/A   Clear
7:58 PM 83.3 °F 85.3 °F 65.8 °F 55% 29.87 in 10.0 mi South 8.1 mph - N/A   Overcast
8:58 PM 81.0 °F 83.2 °F 66.2 °F 61% 29.89 in 10.0 mi SSE 8.1 mph - N/A   Overcast
9:58 PM 81.5 °F 83.7 °F 66.2 °F 60% 29.91 in 10.0 mi SSE 9.2 mph - N/A   Scattered Clouds
10:58 PM 81.1 °F 83.7 °F 67.3 °F 63% 29.91 in 10.0 mi SSE 10.4 mph 20.7 mph N/A   Partly Cloudy
11:58 PM 79.9 °F - 67.5 °F 66% 29.90 in 10.0 mi SSE 10.4 mph - N/A   Scattered Clouds